Voltar ao catálogo

COSMOS 1275 DEB

AtivoPO
NORAD 13813·DEBRIS·🇷🇺 Russia

Lançado Jun 4, 1981 de Plesetsk Cosmodrome

Loading…

Próximas Passagens (próximas 24 horas)

TLE

AtualizadoSource: Space-Track

Época: Sep 14, 2026, 05:00 UTC

1 13813U 81053HH  26257.20842767  .00001445  00000-0  71943-3 0  9992
2 13813  82.9378 162.4096 0038311 201.2094 311.7068 14.16033437226454

Acompanhe COSMOS 1275 DEB em tempo real com AllMySat

Download on the App Store